STARLINK-34591, 64734

Orbit data source: Space-Track

STARLINK-34591, 64734 is a payload satellite owned by SpaceX/Seattle (US) in LEO that was launched on Wed, 02 Jul 2025 UTC via an FALCON 9 launch vehicle from the Air Force Eastern Test Range (AFETR). Payload-class satellites include a variety of spacecraft equipped with specific instruments for various scientific and technological missions. These include communications satellites like Starlink; space stations such as the ISS; scientific satellites like the Hubble; Earth observation satellites from companies like Planet Labs, Umbra, and HawkEye 360; GPS; miniature CubeSats for education and research; and military/defense satellites.

Loading next visibility...
Identifier
64734, 2025-144L
Orbit
LEO
Last TLE update
12 hours ago
Origin
Manufacturer
SpaceX/Seattle
Mission
Operational spacecraft
Bus & Motor
STARLINK V2MO, Unknown motor
Mass
575 kg wet, ~530 kg dry
Launch date (UTC)
2025-07-02 (1 week ago)
Launch vehicle
FALCON 9
Launch site
Air Force Eastern Test Range (AFETR)
Object type
Payload
Rocket body
Debris
Shape & HBR
Unknown
Radar Cross Section
RCS unknown

Expand to show TLE details & history

TLE from 12 hours ago
0 STARLINK-34591
1 64734U 25144L   25191.66668981 -.01153097  00000-0 -47346-2 0  9992
2 64734  53.1540 231.7407 0000849  69.8111  15.9367 15.87977458  2559
Epoch: 2025-07-10T16:00Z
TLE epoch observation values (Epoch: 2025-07-10T16:00:01.999Z)
Latitude
53.09972°
Longitude
145.83096°
Altitude
313.905 km
Speed
7.727 km/s
True Right ascension
20h 58m 40s
True Declination
52° 55' 24"
Sunlit
Object was in daylight at epoch
Visualization orbit readout
Latitude
30.56673°
Longitude
-145.80428°
Altitude
313.183 km
Speed
7.724 km/s
Apparent Right ascension
02h 56m 11s
Apparent Declination
-4° 00' 00"
Sunlit
Object is in daylight
Visualization observer readout
Local Sidereal Time
16:36:03
Azimuth
38.637° NE
Elevation
-47.593°
Doppler factor
1
Orbital elements
Apogee altitude
308.785 km
Perigee altitude
307.65 km
Semi-major axis
6,686.355 km
Eccentricity
0.00008
Inclination
53.154°
RAAN
231.7407°
Arg. of periapsis
69.8111°
True anomaly
Unknown
Mean anomaly
15.9367°
Eccentric anomaly
Unknown
Mean motion
3.96971 °/min
Orbital period
90.69 mins
BSTAR
-0.0047346
Loading maneuver chart data...
Loading SW <> Apogee altitude chart data...
Loading historical data...
Loading historical data...
Loading historical data...
Loading historical data...
Loading historical data...
Loading historical data...
Loading historical data...

STARLINK-34591 Visibility forecast

Observer location: undefined°, undefined°

Span
Click to sort rows by Start time (UTC) header in descending order
Start Az.
Max El. time (UTC)
Max El. Az.
Max El.
End time (UTC)
End Az.
5 mins2025-07-11 05:25:11.503Z224.051° SW2025-07-11 05:27:11.503Z207.365° SW38.92°2025-07-11 05:30:11.503Z53.082° ENE
|